Weather History for Sheridan, WY

Change the Weather History Date:

Sunday, September 8, 2013

  Actual Average Record
Temperature  
Mean Temperature 68 °F 61 °F  
Max Temperature 78 °F 78 °F 99 °F (1979)
Min Temperature 58 °F 45 °F 29 °F (1962)
Degree Days  
Heating Degree Days 0 5  
Month to date heating degree days 0 33  
Since 1 July heating degree days 1 95  
Cooling Degree Days 3 1  
Month to date cooling degree days 71 16  
Year to date cooling degree days 581 406  
Growing Degree Days 20 (Base 50)    
Moisture  
Dew Point 59 °F    
Average Humidity 76    
Maximum Humidity 97    
Minimum Humidity 54    
Precipitation  
Precipitation 0.15 in 0.04 in 0.97 in (1991)
Month to date precipitation 0.56 0.30  
Year to date precipitation 10.55 10.35  
Sea Level Pressure  
Sea Level Pressure 29.92 in    
Wind  
Wind Speed 5 mph (West)    
Max Wind Speed 18 mph    
Max Gust Speed 21 mph    
Visibility 10 miles    
Events Rain , Thunderstorm    
T = Trace of Precipitation, MM = Missing Value Source: NWS Daily Summary

Daily Weather History Graph

Daily Weather History Graph

Search for Another Location

Airport:

Trip Planner

Search our weather history database for the weather conditions in past years. The results will help you decide how hot, cold, wet, or windy it might be!

Date:

Astronomy

Sep. 08, 2013 Rise Set
Actual Time 6:38 AM MDT 7:31 PM MDT
Civil Twilight 6:09 AM MDT 8:00 PM MDT
Nautical Twilight 5:33 AM MDT 8:36 PM MDT
Astronomical Twilight 4:56 AM MDT 9:12 PM MDT
Moon 10:10 AM MDT (9/8) 8:56 PM MDT (9/8)
Length of Visible Light 13h 51m
Length of Day
12h 52m
Waxing Crescent, 11% of the Moon is Illuminated
Sep 8
Waxing Crescent
Sep 12
First Quarter
Sep 19
Full
Sep 26
Last Quarter
Oct 4
New

Hourly Weather History & Observations

Time (MDT) Temp. Dew Point Humidity Pressure Visibility Wind Dir Wind Speed Gust Speed Precip Events Conditions
12:08 AM 62.6 °F 59.0 °F 88% 30.06 in 10.0 mi NW 9.2 mph - 0.01 in Rain , Thunderstorm Light Rain
12:29 AM 62.6 °F 59.0 °F 88% 30.06 in 10.0 mi West 12.7 mph - 0.03 in Rain Light Rain
12:53 AM 62.1 °F 60.1 °F 93% 29.95 in 10.0 mi WNW 15.0 mph - 0.03 in   Partly Cloudy
1:53 AM 62.1 °F 59.0 °F 90% 29.93 in 10.0 mi North 9.2 mph - 0.00 in Thunderstorm Thunderstorm
2:13 AM 62.6 °F 59.0 °F 88% 30.04 in 10.0 mi NNW 6.9 mph - N/A   Scattered Clouds
2:53 AM 63.0 °F 59.0 °F 87% 29.94 in 10.0 mi WNW 10.4 mph - N/A   Overcast
3:34 AM 62.6 °F 59.0 °F 88% 30.07 in 10.0 mi WNW 9.2 mph - N/A   Mostly Cloudy
3:42 AM 62.6 °F 59.0 °F 88% 30.07 in 10.0 mi WNW 6.9 mph - N/A   Mostly Cloudy
3:53 AM 63.0 °F 59.0 °F 87% 29.95 in 10.0 mi WNW 8.1 mph - N/A   Overcast
4:21 AM 62.6 °F 59.0 °F 88% 30.08 in 10.0 mi WNW 6.9 mph - N/A   Overcast
4:53 AM 62.1 °F 57.9 °F 86% 29.95 in 10.0 mi WSW 8.1 mph - N/A   Mostly Cloudy
5:53 AM 62.1 °F 57.9 °F 86% 29.93 in 10.0 mi South 4.6 mph - N/A   Clear
6:53 AM 61.0 °F 59.0 °F 93% 29.94 in 10.0 mi Calm Calm - N/A   Clear
7:53 AM 63.0 °F 59.0 °F 87% 29.94 in 10.0 mi Calm Calm - N/A   Partly Cloudy
8:53 AM 66.0 °F 60.1 °F 81% 29.93 in 10.0 mi SE 3.5 mph - N/A   Overcast
9:53 AM 69.1 °F 60.1 °F 73% 29.92 in 10.0 mi East 3.5 mph - N/A   Overcast
10:35 AM 73.4 °F 60.8 °F 65% 30.03 in 10.0 mi Variable 3.5 mph - N/A   Mostly Cloudy
10:53 AM 70.0 °F 60.1 °F 71% 29.94 in 10.0 mi NNW 5.8 mph - N/A   Overcast
11:12 AM 73.4 °F 62.6 °F 69% 30.03 in 10.0 mi NNW 8.1 mph - N/A   Mostly Cloudy
11:53 AM 72.0 °F 59.0 °F 64% 29.93 in 10.0 mi NW 4.6 mph - N/A   Mostly Cloudy
12:53 PM 77.0 °F 59.0 °F 54% 29.89 in 10.0 mi North 5.8 mph - N/A   Scattered Clouds
1:53 PM 75.9 °F 57.0 °F 52% 29.87 in 10.0 mi ENE 3.5 mph - N/A   Overcast
2:53 PM 75.9 °F 57.0 °F 52% 29.84 in 10.0 mi West 3.5 mph - N/A   Scattered Clouds
3:53 PM 71.1 °F 62.1 °F 73% 29.85 in 10.0 mi West 3.5 mph - 0.00 in Rain Light Rain
4:02 PM 71.6 °F 62.6 °F 73% 29.94 in 10.0 mi SW 4.6 mph - 0.01 in Rain , Thunderstorm Rain
4:26 PM 68.0 °F 62.6 °F 83% 29.94 in - Calm Calm - 0.05 in Rain Light Rain
4:43 PM 66.2 °F 62.6 °F 88% 29.94 in - WNW 12.7 mph - 0.06 in Rain , Thunderstorm Thunderstorms and Rain
4:45 PM 68.0 °F 62.6 °F 83% 29.94 in 5.0 mi NW 6.9 mph - N/A Rain Rain
4:53 PM 66.0 °F 63.0 °F 90% 29.87 in - WNW 12.7 mph - 0.08 in Rain , Thunderstorm Light Thunderstorms and Rain
5:01 PM 66.2 °F 62.6 °F 88% 29.95 in - WNW 8.1 mph - 0.02 in Rain Heavy Rain
5:40 PM 68.0 °F 64.4 °F 88% 29.94 in 10.0 mi ESE 3.5 mph - N/A Rain Rain
5:53 PM 66.9 °F 62.1 °F 84% 29.86 in - Calm Calm - 0.07 in Rain Light Rain
6:45 PM 68.0 °F 59.0 °F 73% 29.90 in 25.0 mi Calm Calm - N/A   Overcast
6:53 PM 66.0 °F 61.0 °F 84% 29.84 in - SSW 4.6 mph - 0.00 in   Overcast
7:53 PM 64.9 °F 59.0 °F 81% 29.79 in - SSE 4.6 mph - N/A   Mostly Cloudy
7:55 PM 66.2 °F 57.2 °F 73% 29.85 in 15.0 mi SSE 4.6 mph - N/A   Mostly Cloudy
8:45 PM 64.4 °F 55.4 °F 73% 29.87 in 10.0 mi South 5.8 mph - N/A   Mostly Cloudy
8:53 PM 63.0 °F 57.9 °F 84% 29.82 in - SW 6.9 mph - N/A   Clear
9:46 PM 66.2 °F 55.4 °F 68% 29.90 in 10.0 mi SSW 3.5 mph - N/A   Overcast
9:53 PM 64.9 °F 55.9 °F 73% 29.82 in - West 3.5 mph - N/A   Clear
10:53 PM 62.1 °F 55.0 °F 78% 29.83 in - South 3.5 mph - N/A   Clear
11:53 PM 61.0 °F 54.0 °F 78% 29.81 in - Calm Calm - N/A   Clear